Location: Estes Park
(40.3770°N, 105.5210°W)
Time: 03:11:23
(UTC-06:00)

Tiangong 2 - Pass Details

Date: 14 October 2017
Orbit: 388 x 391 km, 42.8° (Epoch: 23 October)

Event Time Altitude Azimuth Distance (km) Brightness Sun altitude
Exits shadow 06:03:08 26° 296° (WNW) 807 2.2 -13.9°
Maximum altitude 06:04:39 52° 2° (N) 487 1.5 -13.6°
Drops below altitude 10° 06:07:47 10° 80° (E) 1,415 5.3 -13.0°
Sets 06:09:54 0° 86° (E) 2,271 7.0 -12.6°
